Location: Newark
(54.6833°N, 25.2833°E)
Time: 19:29:52
(UTC+00:00)

Tiros 1 despin weight - All Passes

Search period start: 17 November 2019 00:00
Search period end: 27 November 2019 00:00
Orbit: 594 x 642 km, 48.2° (Epoch: 17 November)

Date Brightness Start Highest point End Pass type
(mag) Time Alt. Az. Time Alt. Az. Time Alt. Az.
17 Nov - 12:08:41 10° S 12:11:05 14° SSE 12:13:29 10° ESE daylight
17 Nov - 13:47:47 10° SW 13:51:41 31° SSE 13:55:39 10° ESE daylight
17 Nov - 15:28:33 10° WSW 15:32:38 35° S 15:36:45 10° ESE visible
17 Nov - 17:10:02 10° WSW 17:13:27 22° SSW 17:16:57 10° SSE visible
18 Nov - 12:23:56 10° SSW 12:27:14 21° SSE 12:30:33 10° ESE daylight
18 Nov - 14:03:59 10° WSW 14:08:01 35° S 14:12:07 10° ESE daylight
18 Nov - 15:45:01 10° WSW 15:48:58 31° SSW 15:52:58 10° SE visible
18 Nov - 17:27:00 10° WSW 17:29:38 15° SSW 17:32:18 10° S visible
19 Nov - 11:01:46 10° SSE 11:02:59 11° SE 11:04:12 10° SE daylight
19 Nov - 12:39:44 10° SW 12:43:28 27° SSE 12:47:15 10° ESE daylight
19 Nov - 14:20:18 10° WSW 14:24:23 36° S 14:28:30 10° ESE daylight
19 Nov - 16:01:35 10° WSW 16:05:16 25° SSW 16:08:59 10° SE visible
20 Nov - 11:16:14 10° S 11:19:05 17° SSE 11:21:56 10° ESE daylight
20 Nov - 12:55:49 10° SW 12:59:47 33° SSE 13:03:47 10° ESE daylight
20 Nov - 14:36:43 10° WSW 14:40:44 34° S 14:44:47 10° SE daylight
20 Nov - 16:18:21 10° WSW 16:21:29 19° SSW 16:24:39 10° SSE visible
21 Nov - 11:31:46 10° SSW 11:35:16 23° SSE 11:38:48 10° ESE daylight
21 Nov - 13:12:04 10° WSW 13:16:07 36° S 13:20:13 10° ESE daylight
21 Nov - 14:53:13 10° WSW 14:57:03 29° SSW 15:00:55 10° SE visible
21 Nov - 16:35:38 10° WSW 16:37:38 13° SW 16:39:38 10° S visible
22 Nov - 10:08:50 10° S 10:10:58 13° SE 10:13:06 10° ESE daylight
22 Nov - 11:47:42 10° SW 11:51:33 29° SSE 11:55:25 10° ESE daylight
22 Nov - 13:28:26 10° WSW 13:32:28 35° S 13:36:34 10° ESE daylight
22 Nov - 15:09:50 10° WSW 15:13:19 22° SSW 15:16:48 10° SSE visible
23 Nov - 10:23:56 10° SSW 10:27:06 19° SSE 10:30:16 10° ESE daylight
23 Nov - 12:03:52 10° WSW 12:07:51 34° S 12:11:53 10° ESE daylight
23 Nov - 13:44:52 10° WSW 13:48:49 32° SSW 13:52:48 10° SE daylight
23 Nov - 15:26:45 10° WSW 15:29:30 16° SSW 15:32:15 10° S visible
24 Nov - 09:02:32 10° SE 09:02:52 10° SE 09:03:12 10° SE daylight
24 Nov - 10:39:40 10° SW 10:43:20 26° SSE 10:47:00 10° ESE daylight
24 Nov - 12:20:10 10° WSW 12:24:13 36° S 12:28:18 10° ESE daylight
24 Nov - 14:01:25 10° WSW 14:05:07 26° SSW 14:08:50 10° SE daylight
24 Nov - 15:44:57 10° SW 15:45:36 10° SW 15:46:14 10° SSW visible
25 Nov - 09:16:17 10° S 09:18:57 16° SSE 09:21:38 10° ESE daylight
25 Nov - 10:55:42 10° SW 10:59:37 32° SSE 11:03:33 10° ESE daylight
25 Nov - 12:36:34 10° WSW 12:40:34 34° S 12:44:36 10° ESE daylight
25 Nov - 14:18:09 10° WSW 14:21:21 20° SSW 14:24:33 10° SSE daylight
26 Nov - 09:31:43 10° SSW 09:35:08 22° SSE 09:38:33 10° ESE daylight
26 Nov - 11:11:56 10° WSW 11:15:58 35° S 11:20:00 10° ESE daylight
26 Nov - 12:53:03 10° WSW 12:56:53 29° SSW 13:00:46 10° SE daylight
26 Nov - 14:35:20 10° WSW 14:37:29 13° SW 14:39:40 10° S daylight
